Вернуться в каталог

ATLAS 5 CENTAUR DEB

LostHEO
NORAD 46870·DEBRIS·🇺🇸 United States

Запущен Oct 17, 2018 с Cape Canaveral Space Force Station

Loading…

Ближайшие Пролёты (ближайшие 24 часа)

TLE

УстаревшееSource: Space-Track

Эпоха: Jan 16, 2021, 17:06 UTC

1 46870U 18079EB  21016.71280391 -.00000077  00000-0  00000+0 0  9995
2 46870  11.6699 188.8196 4765786  29.0497 350.6369  2.05289780  1547

Отслеживайте ATLAS 5 CENTAUR DEB в реальном времени с AllMySat

Download on the App Store